"Pseudo-MPEC" for ST25J05

Created 2025 Oct 14 5:35:19 UT using Find_Orb

Click here for an explanation of pseudo-MPECs

 
 Astrometry: 
     ST25J05* C2025 10 13.16944622 33 35.149-02 38 20.46   ~AD5K 18.63GVNEOCPU68
     ST25J05  C2025 10 13.17278822 33 52.140-02 43 58.31   ~AD5K 18.63GVNEOCPU68
     ST25J05  C2025 10 13.20655122 36 43.470-03 40 36.32   ~AD5Z 18.46GVNEOCPU74
     ST25J05  C2025 10 13.20748622 36 48.157-03 42 09.44   ~AD5Z 18.46GVNEOCPU74
     ST25J05  C2025 10 13.23322622 38 37.10 -04 15 28.6    ~AD6K       WNEOCPX09
     ST25J05  C2025 10 13.23436922 39 03.535-04 26 46.46   ~AD65 18.54GVNEOCPU74
     ST25J05  C2025 10 13.23675522 38 54.99 -04 21 16.8    ~AD6K       WNEOCPX09
     ST25J05  C2025 10 13.23767722 39 20.077-04 32 15.59   ~AD65 18.54GVNEOCPU74
     ST25J05 KB2025 10 13.47796822 59 34.654-10 49 55.77   ~ADCK 19.1 VZNEOCPQ06
     ST25J05 KB2025 10 13.48409823 00 03.413-10 59 02.87   ~ADCK 18.5 VZNEOCPQ06
     ST25J05 KB2025 10 13.49023023 00 32.037-11 08 07.27   ~ADCK 18.9 VZNEOCPQ06
     ST25J05 KB2025 10 13.52622 23 03 28.162-12 01 07.75   ~ADE5 18.3 GVNEOCPP13
     ST25J05 KB2025 10 13.53212 23 03 55.493-12 09 41.62   ~ADE5 18.7 GVNEOCPP13
     ST25J05 KB2025 10 13.54240 23 04 42.905-12 24 29.88   ~ADE5 18.6 GVNEOCPP13
     ST25J05 KB2025 10 13.58566723 07 51.456-13 25 21.43   ~ADF5 18.2 GWNEOCP900
     ST25J05 KB2025 10 13.58891023 08 06.192-13 29 53.16   ~ADF5 18.9 GWNEOCP900
     ST25J05 KB2025 10 13.59215323 08 20.933-13 34 24.06   ~ADF5 18.7 GWNEOCP900
     ST25J05 KB2025 10 13.82055023 25 47.03 -18 32 21.0    ~ADL5 18.3 GXNEOCP595
     ST25J05 KB2025 10 13.82290723 25 56.93 -18 35 11.5    ~ADL5 18.6 GXNEOCP595
     ST25J05 KB2025 10 13.82503823 26 05.89 -18 37 45.8    ~ADL5 18.7 GXNEOCP595
     ST25J05 KC2025 10 13.82817723 26 19.05 -18 41 30.8    ~ADKK 19.1 GVNEOCPL01
     ST25J05 KC2025 10 13.82898323 26 22.41 -18 42 28.9    ~ADKK 18.6 GVNEOCPL01
     ST25J05 KC2025 10 13.82980323 26 25.88 -18 43 28.4    ~ADKK 18.8 GVNEOCPL01
     ST25J05 KC2025 10 13.83061023 26 29.26 -18 44 26.9    ~ADKK 18.6 GVNEOCPL01
     ST25J05 KC2025 10 13.83141023 26 32.57 -18 45 24.3    ~ADKK 18.7 GVNEOCPL01
     ST25J05 KC2025 10 13.84330023 27 27.75 -18 59 23.5    ~ADKo 19.4 GXNEOCP958
     ST25J05 KC2025 10 13.84707623 27 43.37 -19 03 52.8    ~ADKo 19.2 GXNEOCP958
     ST25J05 KB2025 10 13.85018423 27 55.91 -19 07 37.5    ~ADL5 19.0 GVNEOCPI93
     ST25J05 KC2025 10 13.85085623 27 59.17 -19 08 21.1    ~ADKo 19.3 GXNEOCP958
     ST25J05 KB2025 10 13.85297523 28 07.51 -19 10 55.5    ~ADL5 19.4 GVNEOCPI93
     ST25J05 KB2025 10 13.85574023 28 19.00 -19 14 11.9    ~ADL5 19.0 GVNEOCPI93
     ST25J05 KB2025 10 13.89137323 30 41.911-19 55 44.20   ~ADM5 19.41GXNEOCP126
     ST25J05 KB2025 10 13.89568023 30 59.490-20 00 42.18   ~ADM5 19.35GXNEOCP126
     ST25J05 KB2025 10 13.89998623 31 17.074-20 05 37.71   ~ADM5 19.41GXNEOCP126

Station data:
(126) Monte Viseggi  (N44.132565 E9.790150)  Italy.
   Observers L. Sannino, A. Mancuso, S. Mercanti, D. Agnetti. Measurers L.
   Sannino, A. Mancuso. 0.41-m f/5.3 reflector + CCD.
(595) Farra d'Isonzo  (N45.915731 E13.525780)  Italy.  Observers S. Aschi, E.
   Pettarin, G. Panterotto. Measurers S. Aschi, E. Pettarin. 0.40-m f/5.15
   reflector + CCD.
(900) Moriyama  (N35.049753 E135.989940)  Japan.  Observer Y. Ikari. 0.26-m
   f/7.0 reflector + CCD.
(958) Observatoire de Dax  (N43.693381 W1.030530)  France.  Observer P.
   Dupouy. 0.32-m Schmidt-Cassegrain.
(I93) St Pardon de Conques  (N44.558670 W0.202960)  France.  Observers F.
   Losse, W. D'Anna. Measurer F. Losse. 0.40-m f/3.7 reflector + CCD.
(L01) Višnjan Observatory, Tičan  (N45.290897 E13.749300)  Croatia.
   Observers K. Korlević, L. Poropat. Measurer K. Korlevic. 1.0-m f/2.9
   reflector + CCD.
(P13) Baihuashan Observatory, Beijing  (N39.837554 E115.573330)  China.
   Observers Z. Wang, B. Liu. Measurer Z. Wang. 0.28-m f/2.2 reflector + CMO.
(Q06) Tarui Observatory, Tarui  (N35.394791 E136.495470)  Japan.  Observer H.
   Watanabe. 0.35-m f/1.9 Schmidt-Cassegrain + CMO.
(U68) JPL SynTrack Robotic Telescope, Auberry  (N37.070387 W119.412990)
   US/California.  Observers N. Saini, C. Zhai, R. Trahan, M. Zhan, M. Shao.
   0.28-m f/2.2 Schmidt + CCD.
(U74) JPL SynTrack Robotic Telescope 2, Auberry  (N37.070341 W119.412800)
   US/California.  Observers N. Saini, C. Zhai, R. Trahan, M. Zhan, M. Shao.
   0.36-m f/2.2 Schmidt.
(X09) Deep Random Survey, Rio Hurtado  (S30.526310 W70.853300)  Chile.
   Observers A. Schnabel, D. Ruhela. Measurer S. Deen. 0.43-m reflector +
   CMOS.

Orbital elements:  ST25J05
   Perihelion 2025 Sep 13.274499 +/- 0.0246 TT =  6:35:16.6 (JD 2460931.774499)
Epoch 2025 Oct 14.0 TT = JDT 2460962.5   Earth MOID: 0.0126      AutoNEOCP
M  13.008297061 +/- 0.041           (J2000 ecliptic)
n   0.423371353 +/- 0.00102         Peri.  142.817975 +/- 0.020
a   1.756527969 +/- 0.00281         Node   199.264535 +/- 0.0006
e   0.46101015 +/- 0.000867         Incl.   30.111325 +/- 0.026
P   2.328/850.301d         H 26.10  G  0.15   U  8.1
q 0.946750743 +/- 2.72e-5    Q 2.566305195 +/- 0.00564
From 34 observations 2025 Oct. 13 (17.5 hr); mean residual 0".52
Residuals in arcseconds: 
251013 U68  .03+  .13+    251013 P13  .67+  1.2-    251013 L01  .06+  .04+    
251013 U68  .66-  .44+    251013 P13  .51+  .38-    251013 958  .86+  .96-    
251013 U74  .14+  .35-    251013 900  .17-  .05+    251013 958  .75-  .51-    
251013 U74  .38-  .10+    251013 900  .05+  .06-    251013 I93  .29-  .05-    
251013 X09  .69+  1.1-    251013 900  .51+  .10+    251013 958  .34+  .49+    
251013 U74  .39+  .69+    251013 595  .01+  .27+    251013 I93  .28-  .37+    
251013 X09  .04+  .10+    251013 595  .04-  .68+    251013 I93  .10-  .14+    
251013 U74  .40-  .68-    251013 595  .17+  .65+    251013 126  .61-  .54+    
251013 Q06  .65-  1.0+    251013 L01  .25+  .47+    251013 126  .64-  1.1-    
251013 Q06  .02-  .35+    251013 L01  .03+  .52+    251013 126  .15-  1.3-    
251013 Q06  .62-  .71+    251013 L01  .55+  .15+    
251013 P13  .18+  .07+    251013 L01  .58+  .19-    

Ephemerides (geocentric):
Date (UTC) HH   RA             Dec           delta  r     elong  mag " sig PA
---- --------  ------------   ------------  ------ ------ -----  --- --------
2025 10 14 06  23 54 15.900   -25 52 27.84  .02302 1.0154 140.5 19.5 .470 164
2025 10 14 07  23 56 47.683   -26 28 41.56  .02333 1.0155 140.3 19.5 .471 163
2025 10 14 08  23 59 16.947   -27 03 47.33  .02365 1.0157 140.1 19.6 .472 163
2025 10 14 09  00 01 43.721   -27 37 47.08  .02397 1.0159 139.8 19.6 .472 163
2025 10 14 10  00 04 08.033   -28 10 42.75  .02430 1.0161 139.6 19.6 .472 162
2025 10 14 11  00 06 29.915   -28 42 36.27  .02463 1.0162 139.3 19.7 .472 162
2025 10 14 12  00 08 49.396   -29 13 29.54  .02497 1.0164 139.0 19.7 .471 162
2025 10 14 13  00 11 06.509   -29 43 24.48  .02530 1.0166 138.8 19.7 .470 162
2025 10 14 14  00 13 21.288   -30 12 22.94  .02565 1.0168 138.5 19.8 .469 161
2025 10 14 15  00 15 33.765   -30 40 26.76  .02599 1.0169 138.3 19.8 .467 161
2025 10 14 16  00 17 43.976   -31 07 37.75  .02635 1.0171 138.0 19.9 .465 161
2025 10 14 17  00 19 51.954   -31 33 57.66  .02670 1.0173 137.7 19.9 .463 161
2025 10 14 18  00 21 57.735   -31 59 28.24  .02706 1.0175 137.5 19.9 .461 160
2025 10 14 19  00 24 01.355   -32 24 11.15  .02741 1.0176 137.2 20.0 .459 160
2025 10 14 20  00 26 02.849   -32 48 08.04  .02778 1.0178 137.0 20.0 .456 160
2025 10 14 21  00 28 02.252   -33 11 20.49  .02814 1.0180 136.7 20.0 .453 160
2025 10 14 22  00 29 59.601   -33 33 50.05  .02851 1.0182 136.5 20.1 .451 160
2025 10 14 23  00 31 54.930   -33 55 38.22  .02888 1.0183 136.2 20.1 .448 159
2025 10 15 00  00 33 48.277   -34 16 46.44  .02926 1.0185 136.0 20.1 .445 159
2025 10 15 01  00 35 39.675   -34 37 16.13  .02963 1.0187 135.7 20.2 .441 159
2025 10 15 02  00 37 29.161   -34 57 08.64  .03001 1.0189 135.5 20.2 .438 159
2025 10 15 03  00 39 16.770   -35 16 25.29  .03039 1.0190 135.2 20.2 .435 159
2025 10 15 04  00 41 02.536   -35 35 07.33  .03077 1.0192 135.0 20.3 .432 159
2025 10 15 05  00 42 46.494   -35 53 15.99  .03116 1.0194 134.8 20.3 .428 159
2025 10 15 06  00 44 28.678   -36 10 52.46  .03154 1.0196 134.5 20.3 .425 159
2025 10 15 07  00 46 09.122   -36 27 57.86  .03193 1.0198 134.3 20.4 .421 159
2025 10 15 08  00 47 47.860   -36 44 33.30  .03232 1.0199 134.1 20.4 .418 158
2025 10 15 09  00 49 24.924   -37 00 39.83  .03271 1.0201 133.9 20.4 .414 158
2025 10 15 10  00 51 00.346   -37 16 18.46  .03311 1.0203 133.6 20.5 .411 158
2025 10 15 11  00 52 34.160   -37 31 30.17  .03350 1.0205 133.4 20.5 .407 158
2025 10 15 12  00 54 06.396   -37 46 15.91  .03390 1.0206 133.2 20.5 .404 158
2025 10 15 13  00 55 37.086   -38 00 36.58  .03430 1.0208 133.0 20.6 .400 158
2025 10 15 14  00 57 06.261   -38 14 33.06  .03470 1.0210 132.8 20.6 .397 158
2025 10 15 15  00 58 33.950   -38 28 06.17  .03510 1.0212 132.6 20.6 .393 158
2025 10 15 16  01 00 00.184   -38 41 16.73  .03550 1.0214 132.4 20.7 .390 158
2025 10 15 17  01 01 24.990   -38 54 05.52  .03591 1.0215 132.2 20.7 .387 158
2025 10 15 18  01 02 48.399   -39 06 33.27  .03631 1.0217 132.0 20.7 .383 158
2025 10 15 19  01 04 10.438   -39 18 40.71  .03672 1.0219 131.8 20.7 .380 158
2025 10 15 20  01 05 31.135   -39 30 28.52  .03713 1.0221 131.6 20.8 .376 158
2025 10 15 21  01 06 50.516   -39 41 57.38  .03754 1.0223 131.4 20.8 .373 158
2025 10 15 22  01 08 08.609   -39 53 07.91  .03795 1.0224 131.3 20.8 .370 158
2025 10 15 23  01 09 25.438   -40 04 00.74  .03836 1.0226 131.1 20.9 .366 158
2025 10 16 00  01 10 41.031   -40 14 36.44  .03877 1.0228 130.9 20.9 .363 158
2025 10 16 01  01 11 55.411   -40 24 55.59  .03919 1.0230 130.7 20.9 .360 158
2025 10 16 02  01 13 08.604   -40 34 58.74  .03960 1.0232 130.6 20.9 .357 158
2025 10 16 03  01 14 20.633   -40 44 46.40  .04002 1.0234 130.4 21.0 .354 158
2025 10 16 04  01 15 31.522   -40 54 19.09  .04043 1.0235 130.2 21.0 .351 158
2025 10 16 05  01 16 41.293   -41 03 37.29  .04085 1.0237 130.1 21.0 .348 158